237  
ASUS41 KBOX 070105  
RWRBOX  
 
REGIONAL WEATHER ROUNDUP  
NATIONAL WEATHER SERVICE BOSTON/NORTON MA  
900 PM EDT THU MAY 06 2021  
 
NOTE: "FAIR" INDICATES FEW OR NO CLOUDS BELOW 12,000 FEET WITH NO  
SIGNIFICANT WEATHER AND/OR S TO VISIBILITY
.  
 
MAZALL-070200-  
EASTERN MASSACHUSETTS  
 
CITY SKY/WX TMP DP RH WIND PRES REMARKS
 
BOSTON CLOUDY 61 27 27 N7 29.91R  
BEVERLY CLEAR 55 27 34 N5 29.92R  
LAWRENCE CLEAR 55 27 34 N6 29.94R  
BEDFORD CLEAR 54 34 46 N5 29.91R  
BLUE HILL N/A 55 29 36 N10 29.89R  
NORWOOD CLEAR 58 30 34 N6 29.90R  
MARSHFIELD CLEAR 52 43 71 CALM 29.91R  
PLYMOUTH CLEAR 53 38 56 CALM 29.90R  
TAUNTON CLEAR 52 39 61 NE5 29.90R  
NEW BEDFORD CLEAR 54 42 64 NE5 29.89R  

 
 
MAZALL-070200-  
CAPE COD AND THE ISLANDS  
 
CITY SKY/WX TMP DP RH WIND PRES REMARKS
 
FALMOUTH CLEAR 50 39 66 CALM 29.90R  
HYANNIS CLEAR 50 43 77 CALM 29.90R  
CHATHAM CLEAR 50 43 77 CALM 29.92R  
PROVINCETOWN CLEAR 55 34 45 N6 29.92R  
NANTUCKET CLEAR 49 42 77 SW6 29.92R  
MARTHAS VNYRD CLEAR 49 39 68 W3 29.91R  

 
 
MAZALL-070200-  
CENTRAL AND WESTERN MASSACHUSETTS  
 
CITY SKY/WX TMP DP RH WIND PRES REMARKS
 
WORCESTER CLEAR 55 30 38 N8 29.92R  
FITCHBURG CLEAR 50 35 56 N3 29.92R  
ORANGE CLEAR 49 39 68 CALM 29.93R  
SPRINGFIELD CLOUDY 52 38 57 N5 29.91R  
WESTFIELD PTCLDY 55 34 45 NW7 29.92R  
NORTH ADAMS PTCLDY 47 38 71 CALM 29.94R  
PITTSFIELD PTCLDY 50 30 46 W9 29.92R  

 
 
RIZALL-070200-  
RHODE ISLAND  
 
CITY SKY/WX TMP DP RH WIND PRES REMARKS
 
PROVIDENCE MOCLDY 60 32 34 N7 29.90R  
NEWPORT CLEAR 51 41 68 CALM 29.89R  
BLOCK ISLAND CLEAR 51 42 71 VRB7 29.91R  
SMITHFIELD N/A 55 35 47 N8 29.91R  
WESTERLY CLEAR 56 36 47 CALM 29.91R  

 
 
CTZALL-070200-  
CONNECTICUT  
 
CITY SKY/WX TMP DP RH WIND PRES REMARKS
 
BRADLEY INTL MOCLDY 56 32 40 NW7 29.91R  
HARTFORD PTCLDY 59 30 33 W5 29.92R  
BRIDGEPORT PTCLDY 60 31 33 N9 29.93R  
DANBURY PTCLDY 58 30 34 N6 29.95R  
GROTON PTCLDY 58 33 39 NW9 29.91R  
NEW HAVEN PTCLDY 58 32 37 N3 29.92R  
CHESTER FAIR 55 28 35 NW6 29.93R  
MERIDEN PTCLDY 57 30 35 CALM 29.93R  
WILLIMANTIC PTCLDY 57 34 41 NW5 29.91S  
OXFORD PTCLDY 52 33 48 N6 29.94R  

 
 
MEZ002-015-021-024-NHZ003-005-008-011-012-014-VTZ005-008-070200-  
NORTHERN NEW ENGLAND  
 
CITY SKY/WX TMP DP RH WIND PRES REMARKS
 
PORTLAND ME CLEAR 52 31 44 W6 29.93R  
BANGOR ME PTCLDY 47 33 58 W6 29.90R  
CONCORD NH CLEAR 52 25 35 N6 29.94R  
MANCHESTER NH PTCLDY 57 24 28 N9 29.92R  
NASHUA NH CLEAR 53 31 42 NW3 29.94R  
PORTSMOUTH NH PTCLDY 51 27 39 NW8 29.94R  
JAFFREY NH CLEAR 46 37 71 CALM 29.94R  
KEENE NH CLEAR 48 36 63 CALM 29.94R  
BURLINGTON VT PTCLDY 51 26 37 NW5 29.96R  
MT. WASHINGTON MOCLDY 23 19 86 NW35 N/A WCI 4  

 
 
NYZ052-076-070200-  
EASTERN NEW YORK  
 
CITY SKY/WX TMP DP RH WIND PRES REMARKS
 
ALBANY MOCLDY 50 29 44 W14 29.95R  
NEW YORK CITY MOCLDY 62 32 32 N13 29.92R  

 
 
ANZALL-070200-  
MARINE OBSERVATIONS  
 
STATION/POSITION TIME TEMP WIND PRES VSBY WAVE
 
AIR SEA DIR/SP/G HT/PER  
(UTC) (F) (DEG/KT/KT) (MB) (MI) (FT/S)  
BOSTON BUOY 0040 51 48 100/ 2/ 4 1012.7R  
BUZZARDS BAY 0000 240/ 13/ 14 1012.6R  
NANTUCKET SOUND 0040 52 N/A  
MASS BAY-STELLWA 0004 53 340/ 8/ 8 1011.1R 1 7/8 2/ 6  
ISLE OF SHOALS 0000 58 310/ 13/ 13 1012.0R  
S OF BLOCK IS 0026 49 N/A 3/10  

 
   
.....................KEY......................
 
 
SKY/WX - SKY CONDITION/PRESENT WEATHER  
TMP - TEMPERATURE IN FAHRENHEIT  
DWPT - DEWPOINT IN FAHRENHEIT  
RH - RELATIVE HUMIDITY IN PERCENT  
WIND - DIRECTION AND SPEED IN MPH  
PRES - MEAN SEA LEVEL PRESSURE IN INCHES OF HG  
WCI - WIND CHILL INDEX  
VSB - VISIBILITY IN MILES  
HX - HEAT INDEX  
TC - TEMPERATURE IN CELSIUS  
VRB - VARIABLE WIND DIRECTION  
N/A - NOT AVAILABLE  
 
 
CLICK HERE TO GO TO PREVIOUS BULLETINS.

The Nexlab MA Page
The Nexlab RI Page
The Nexlab NH Page
The Nexlab CT Page Main Text Page